Ouagadougou International Airport

Airport
ICAO code: 
DFFD
IATA Code: 
OUA
Summary
ICAO Region: 
AFI
Territory: 
Location: 
Ouagadougou,
Serving: 
Ouagadougou
Elevation: 
1037 ft
Coordinates: 
Aerial View: 
12° 21' 13" N, 1° 30' 42.998" W
Metar
Observation
DFFD 210400Z 04004KT CAVOK 17/M01 Q1015 NOSIG
Station
Ouagadougou
Date/Time
2022-01-21 04:00:00
Wind direction
40°
Wind speed
04 kts
Lowest cloud amount
clouds and visibility OK
Temperature
17°C
Dew point
-1°C
Humidity
29%
QNH
1015 hPa
Weather condition
n/a

Description

Ouagadougou International Airport is an airport located in the centre of the city of Ouagadougou in Burkina Faso.

Runways

Designator Length Width Surface Rops
04R/22L 1911 30 LAT Yes/Yes
04L/22R 3028 45 ASP Yes/Yes
Airport map: 
Aerial View: 

SKYbrary Partners:

Safety knowledge contributed by: